Location: Unspecified
(42.3650°N, 71.1030°W)
Time: 12:24:54
(UTC+00:00)

Courier 1B - Pass Details

Date: 01 July 2024
Orbit: 962 x 1209 km, 28.3° (Epoch: 25 July)

Event Time Altitude Azimuth Distance (km) Brightness Sun altitude
Rises 00:40:01 0° 209° (SSW) 3,625 10.4 -3.1°
Reaches altitude 10° 00:44:27 10° 181° (S) 2,685 9.5 -3.8°
Maximum altitude 00:46:57 12° 158° (SSE) 2,522 9.2 -4.1°
Drops below altitude 10° 00:49:29 10° 135° (SE) 2,712 9.2 -4.5°
Enters shadow 00:51:53 - 118° (ESE) 3,164 9.5 -4.9°
Sets 00:54:00 0° 107° (ESE) 3,702 - -5.2°
